Weather History for Toledo, OH

Change the Weather History Date:

Friday, February 8, 2013

  Actual Average Record
Temperature  
Mean Temperature -3 °C -3 °C  
Max Temperature 0 °C 1 °C 19 °C (1900)
Min Temperature -7 °C -7 °C -25 °C (1967)
Degree Days  
Heating Degree Days 39 38  
Month to date heating degree days 355 310  
Since 1 July heating degree days 3747 3859  
Cooling Degree Days 0 0  
Month to date cooling degree days 0 0  
Year to date cooling degree days 0 0  
Moisture  
Dew Point -4 °C    
Average Humidity 80    
Maximum Humidity 92    
Minimum Humidity 68    
Precipitation  
Precipitation 3.81 mm 1.78 mm 0.38 mm (2013)
Month to date precipitation 0.54 0.54  
Year to date precipitation 4.16 2.59  
Snow  
Snow 0.25 cm 1.02 cm - ()
Month to date snowfall 7.7 3.0  
Since 1 July snowfall 17.8 24.1  
Snow Depth T cm    
Sea Level Pressure  
Sea Level Pressure 1016 hPa    
Wind  
Wind Speed 17 km/h (NNW)    
Max Wind Speed 39 km/h    
Max Gust Speed 52 km/h    
Visibility 9 kilometers    
Events Snow    
T = Trace of Precipitation, MM = Missing Value Source: NWS Daily Summary

Daily Weather History Graph

Daily Weather History Graph

Search for Another Location

Airport:

Trip Planner

Search our weather history database for the weather conditions in past years. The results will help you decide how hot, cold, wet, or windy it might be!

Date:

Astronomy

Feb. 08, 2013 Rise Set
Actual Time 7:39 AM EST 6:00 PM EST
Civil Twilight 7:10 AM EST 6:29 PM EST
Nautical Twilight 6:37 AM EST 7:02 PM EST
Astronomical Twilight 6:05 AM EST 7:34 PM EST
Moon 6:07 AM EST (2/8) 4:32 PM EST (2/8)
Length of Visible Light 11h 18m
Length of Day
10h 21m
Waning Crescent, 3% of the Moon is Illuminated
Feb 8
Waning Crescent
Feb 10
New
Feb 17
First Quarter
Feb 25
Full
Mar 4
Last Quarter

Hourly Weather History & Observations

Time (EST) Temp. Windchill Dew Point Humidity Pressure Visibility Wind Dir Wind Speed Gust Speed Precip Events Conditions
12:47 AM 0.0 °C -3.6 °C -1.0 °C 93% 1008.4 hPa 6.4 km ENE 11.1 km/h / 3.1 m/s - 0.5 mm   Overcast
12:52 AM 0.0 °C -4.0 °C -1.1 °C 92% 1009.1 hPa 6.4 km ENE 13.0 km/h / 3.6 m/s - 0.5 mm   Overcast
1:52 AM 0.0 °C -3.1 °C -1.0 °C 93% 1007.7 hPa 4.8 km ENE 9.3 km/h / 2.6 m/s - N/A   Overcast
2:14 AM 0.0 °C -2.5 °C -1.0 °C 93% 1007.7 hPa 4.0 km ENE 7.4 km/h / 2.1 m/s - 0.5 mm   Overcast
2:52 AM 0.0 °C -3.6 °C -1.1 °C 92% 1008.1 hPa 4.8 km ENE 11.1 km/h / 3.1 m/s - 1.5 mm   Overcast
3:52 AM 0.0 °C -2.5 °C -1.1 °C 92% 1008.0 hPa 4.0 km NW 7.4 km/h / 2.1 m/s - 0.5 mm Snow Light Snow
4:52 AM 0.0 °C -4.4 °C -1.1 °C 92% 1008.4 hPa 4.8 km NW 14.8 km/h / 4.1 m/s - 0.0 mm   Overcast
5:36 AM -1.0 °C -5.6 °C -2.0 °C 93% 1008.4 hPa 4.0 km NW 14.8 km/h / 4.1 m/s - N/A   Overcast
5:52 AM -0.6 °C -5.7 °C -1.7 °C 92% 1009.4 hPa 4.0 km WNW 18.5 km/h / 5.1 m/s - N/A   Overcast
6:52 AM -1.1 °C -7.4 °C -2.2 °C 92% 1010.8 hPa 4.8 km NW 25.9 km/h / 7.2 m/s 42.6 km/h / 11.8 m/s N/A   Overcast
7:29 AM -1.0 °C -7.0 °C -3.0 °C 86% 1010.7 hPa 8.0 km NW 24.1 km/h / 6.7 m/s 35.2 km/h / 9.8 m/s 0.0 mm Snow Light Snow
7:45 AM -2.0 °C -7.8 °C -3.0 °C 93% 1011.1 hPa 3.2 km NW 20.4 km/h / 5.7 m/s 31.5 km/h / 8.7 m/s 0.0 mm Snow Light Snow
7:50 AM -2.0 °C -8.1 °C -3.0 °C 93% 1011.1 hPa 2.8 km NW 22.2 km/h / 6.2 m/s - 0.0 mm Snow Light Snow
7:52 AM -1.7 °C -7.4 °C -3.3 °C 89% 1012.0 hPa 2.8 km NW 20.4 km/h / 5.7 m/s - 0.0 mm Snow Light Snow
8:05 AM -2.0 °C -8.1 °C -3.0 °C 93% 1011.7 hPa 1.6 km NW 22.2 km/h / 6.2 m/s - 0.0 mm Snow Light Snow
8:20 AM -2.0 °C -7.8 °C -3.0 °C 93% 1012.1 hPa 2.8 km NW 20.4 km/h / 5.7 m/s - 0.3 mm Snow Light Snow
8:35 AM -2.0 °C -7.8 °C -3.0 °C 93% 1012.4 hPa 2.0 km NW 20.4 km/h / 5.7 m/s - 0.3 mm Snow Light Snow
8:39 AM -2.0 °C -7.8 °C -3.0 °C 93% 1012.4 hPa 2.4 km NW 20.4 km/h / 5.7 m/s - 0.3 mm Snow Light Snow
8:52 AM -1.7 °C -8.2 °C -3.3 °C 89% 1013.6 hPa 2.8 km NNW 25.9 km/h / 7.2 m/s - 0.3 mm Snow Light Snow
9:01 AM -2.0 °C -8.1 °C -3.0 °C 93% 1013.1 hPa 2.4 km NNW 22.2 km/h / 6.2 m/s 33.3 km/h / 9.3 m/s 0.0 mm Snow Light Snow
9:08 AM -2.0 °C -7.5 °C -3.0 °C 93% 1013.1 hPa 1.6 km NNW 18.5 km/h / 5.1 m/s - 0.0 mm Snow Light Snow
9:14 AM -2.0 °C -7.8 °C -3.0 °C 93% 1013.4 hPa 2.4 km NNW 20.4 km/h / 5.7 m/s 35.2 km/h / 9.8 m/s 0.0 mm Snow Light Snow
9:28 AM -2.0 °C -8.8 °C -3.0 °C 93% 1013.8 hPa 4.8 km NNW 27.8 km/h / 7.7 m/s 40.7 km/h / 11.3 m/s 0.0 mm Snow Light Snow
9:52 AM -1.7 °C -8.2 °C -4.4 °C 82% 1015.1 hPa 16.1 km NNW 25.9 km/h / 7.2 m/s 50.0 km/h / 13.9 m/s 0.0 mm   Overcast
10:52 AM -1.7 °C -8.4 °C -5.6 °C 75% 1016.9 hPa 16.1 km NNW 27.8 km/h / 7.7 m/s 46.3 km/h / 12.9 m/s N/A   Overcast
11:52 AM -2.2 °C -9.5 °C -6.1 °C 75% 1018.3 hPa 16.1 km NNW 31.5 km/h / 8.7 m/s 44.4 km/h / 12.3 m/s N/A   Overcast
12:52 PM -2.2 °C -9.1 °C -6.7 °C 72% 1019.2 hPa 16.1 km NNW 27.8 km/h / 7.7 m/s 51.9 km/h / 14.4 m/s N/A   Overcast
1:52 PM -2.8 °C -9.4 °C -6.7 °C 75% 1020.1 hPa 16.1 km NNW 24.1 km/h / 6.7 m/s 40.7 km/h / 11.3 m/s N/A   Overcast
2:52 PM -2.8 °C -9.8 °C -7.2 °C 72% 1020.7 hPa 16.1 km NNW 27.8 km/h / 7.7 m/s 42.6 km/h / 11.8 m/s N/A   Overcast
3:52 PM -2.8 °C -9.8 °C -7.2 °C 72% 1021.9 hPa 16.1 km North 27.8 km/h / 7.7 m/s 38.9 km/h / 10.8 m/s N/A   Overcast
4:52 PM -2.8 °C -9.1 °C -7.2 °C 72% 1022.9 hPa 16.1 km NNW 22.2 km/h / 6.2 m/s - N/A   Overcast
5:52 PM -2.8 °C -7.8 °C -7.2 °C 72% 1024.0 hPa 16.1 km NNW 14.8 km/h / 4.1 m/s - N/A   Mostly Cloudy
6:06 PM -3.0 °C -6.7 °C -7.0 °C 74% 1023.2 hPa 16.1 km NNW 9.3 km/h / 2.6 m/s - N/A   Scattered Clouds
6:52 PM -3.3 °C -6.4 °C -7.8 °C 71% 1025.1 hPa 16.1 km NNW 7.4 km/h / 2.1 m/s - N/A   Partly Cloudy
7:52 PM -3.9 °C -7.1 °C -8.3 °C 72% 1026.0 hPa 16.1 km WNW 7.4 km/h / 2.1 m/s - N/A   Clear
8:52 PM -4.4 °C -7.7 °C -8.9 °C 71% 1026.4 hPa 16.1 km NW 7.4 km/h / 2.1 m/s - N/A   Clear
9:52 PM -5.0 °C -7.5 °C -8.9 °C 74% 1027.6 hPa 16.1 km NW 5.6 km/h / 1.5 m/s - N/A   Clear
10:52 PM -6.1 °C -9.6 °C -9.4 °C 78% 1027.9 hPa 16.1 km NNW 7.4 km/h / 2.1 m/s - N/A   Clear
11:52 PM -6.1 °C -9.6 °C -10.0 °C 74% 1028.3 hPa 16.1 km NNW 7.4 km/h / 2.1 m/s - N/A   Clear